Location: Amolatar
(1.5833°N, 32.7500°E)
Time: 20:35:07
(UTC+00:00)

Daily predictions for brighter satellites

Satellite Brightness Start Highest point End
(mag) Time Altitude Azimuth Time Altitude Azimuth Time Altitude Azimuth
Cosmos 1655 Rocket 4.0 16:10:21 10° S 16:16:39 76° E 16:22:57 10° N
YAOGAN 1 3.7 16:17:15 10° SE 16:20:45 24° ENE 16:24:15 10° NNE
Cosmos 1953 3.3 16:18:33 10° NNE 16:22:02 29° E 16:25:34 10° SSE
Cosmos 1726 3.1 16:19:42 10° NNE 16:22:50 27° E 16:25:58 10° SE
Meteor 2-5 Rocket 3.9 16:19:37 10° S 16:25:11 56° E 16:30:50 10° NNE
Mugunghwa Rocket 4.4 16:20:08 10° SW 16:26:07 44° SSE 16:32:22 10° E
Okean-O 2.6 16:26:07 10° SSE 16:30:31 66° ENE 16:34:54 10° N
SL-14 R/B 4.0 16:30:06 10° SSE 16:33:34 31° E 16:37:01 10° NNE
Cosmos 1470 3.8 16:30:26 10° NNW 16:34:16 50° W 16:38:07 10° S
NOAA 11 4.2 16:29:50 10° SSE 16:35:18 89° ENE 16:40:44 10° NNW
ARIANE 5 R/B 2.8 16:32:02 10° W 16:37:26 85° S 16:41:01 12° E
FALCON 9 DEB 3.1 16:36:07 10° NW 16:39:31 84° WSW 16:42:47 11° SSE
CZ-4 R/B 1.4 16:37:01 10° SSE 16:41:05 65° ENE 16:45:02 10° N
Cosmos 2360 Rocket 2.6 16:40:28 10° S 16:45:37 37° ESE 16:50:46 10° NE
Milstar 3 Cent rocket 4.3 16:44:14 10° N 16:45:48 11° NNE 16:47:27 10° NE
Cosmos 1818 3.5 16:41:27 10° SSW 16:46:50 84° ESE 16:52:14 10° NNE
Meteor 1-24 Rocket 3.7 16:41:26 10° S 16:46:59 69° E 16:52:43 10° NNE
SEDSat Delta rocket 4.0 16:45:03 10° SW 16:49:56 41° SE 16:55:11 11° ENE
Cosmos 2082 4.2 16:47:52 10° N 16:53:05 40° ENE 16:56:56 17° SE
CZ-2C R/B 4.1 16:50:09 14° SE 16:54:14 31° ENE 16:59:11 10° NNE
SJ 16-02 1.6 16:50:11 10° N 16:54:23 46° ENE 16:57:29 17° SSE
Cosmos 2227 Rocket 2.2 16:49:26 10° NNW 16:55:05 89° W 17:00:44 10° SSE
Cosmos 1626 2.0 16:51:30 10° S 16:55:12 83° E 16:58:53 10° N
CZ-2D R/B 3.4 16:51:27 10° S 16:55:19 74° WSW 16:59:08 10° NNW
Cosmos 1939 Rocket 3.5 16:51:17 10° S 16:55:21 58° W 16:59:21 10° NNW
Cosmos 2228 4.1 16:54:44 10° NNE 16:58:23 26° E 16:59:30 23° ESE
Cosmos 2098 Rocket 4.3 16:51:47 10° S 16:59:00 78° W 17:05:06 10° N
Cosmos 1340 Rocket 4.0 16:56:36 10° NNW 17:00:20 42° W 17:04:03 10° SSW
ARIANE 5 DEB (SYLDA) 3.7 16:57:25 10° W 17:01:07 85° N 17:08:59 13° E
ARGOS 4.4 17:00:45 20° E 17:02:04 22° ENE 17:06:10 10° NNE
Delta 198 4.5 16:56:55 10° WSW 17:03:31 72° SSE 17:09:48 13° ENE
USA 215 3.2 16:57:46 10° NE 17:04:12 66° SE 17:10:40 10° SSW
Cosmos 2219 4.3 16:59:10 10° NW 17:04:27 43° WSW 17:09:47 10° S
Meteor 2-8 Rocket 4.4 16:58:23 10° N 17:04:29 83° E 17:10:34 10° S
SL-16 R/B 3.6 17:00:15 10° SW 17:05:31 40° WNW 17:10:47 10° N
FUSE 4.0 17:00:22 10° WNW 17:05:42 72° SSW 17:08:39 27° SE
Cosmos 1606 Rocket 4.2 17:02:19 10° NNE 17:06:23 35° E 17:07:37 29° ESE
Cosmos 1809 Rocket 4.4 17:04:28 10° S 17:10:40 83° E 17:16:50 10° N
Ariane Rocket 4.2 17:12:02 23° E 17:12:09 23° ENE 17:16:04 10° NNE
Cosmos 1898 Rocket 3.5 17:10:19 10° N 17:15:23 58° ENE 17:17:49 30° SE
ATLAS 5 CENTAUR R/B 3.2 17:11:45 10° SW 17:15:26 32° WNW 17:18:59 10° N
Hubble Space Telescope 3.4 17:15:47 10° WNW 17:18:44 19° NNW 17:21:41 10° NNE
CSL-04 Debris 4.3 17:17:36 10° S 17:23:00 75° WSW 17:28:26 10° NNW
CZ-2C R/B 2.4 17:20:48 10° NNE 17:26:02 80° ESE 17:31:13 10° S
GPS 2-17 Rocket1 3.5 17:22:39 10° W 17:27:06 50° SSW 17:28:01 43° SSE
Cosmos 990 Rocket 3.9 17:23:33 10° NNW 17:28:41 87° WSW 17:31:09 31° S
CSL-04 Rocket 4.0 17:24:02 11° S 17:29:20 67° WSW 17:34:47 10° NNW
Orbus 7S 3.1 17:23:08 10° WNW 17:29:37 90° WSW 17:29:59 71° ESE
CZ-3 Stage 3 4.2 17:11:18 10° WNW 17:30:46 38° SW 17:33:46 22° S
GEOS 3 Rocket 3.6 17:26:06 10° NNE 17:31:27 86° WNW 17:36:43 10° SSW
H-2A R/B 2.0 17:29:27 37° SSE 17:31:32 69° ENE 17:36:55 10° N
GMS 1 Rocket B 4.3 17:29:32 10° WSW 17:33:40 72° NNW 17:34:20 57° NNE
BREEZE-M (TANK) 3.3 17:31:12 10° SW 17:33:02 31° WSW 17:33:02 31° WSW
GPS 2-12 Rocket1 3.2 17:29:57 10° WSW 17:34:35 56° SSE 17:34:35 56° SSE
Cosmos 1726 Rocket 3.4 17:32:50 10° N 17:37:16 73° E 17:37:18 73° E
DMSP B5D2-2 4.2 17:32:23 10° N 17:37:34 74° WNW 17:42:45 10° SSW
Centaur D-1AR AC-38 3.1 17:34:43 10° WSW 17:38:50 71° SSE 17:39:03 69° SE
SL-08 R/B 4.4 17:37:48 25° S 17:41:43 71° E 17:47:56 10° N
BLOCK DM-SL R/B 2.5 17:38:31 10° W 17:42:04 79° S 17:46:16 36° E
NOSS 3-3 (A) 3.7 17:43:58 10° SSW 17:49:32 77° WNW 17:55:09 10° NNE
NOSS 3-3 (C) 3.7 17:44:03 10° SSW 17:49:38 78° WNW 17:55:16 10° NNE
ARIANE 5 DEB (SYLDA) 3.3 17:40:20 10° W 17:51:03 85° S 17:51:10 84° SE
Meteor 1-21 Rocket 4.1 17:53:49 69° SSE 17:54:31 81° E 18:00:23 10° N
USA 234 4.1 17:51:42 25° S 17:54:55 42° SW 18:01:00 10° WNW
ARIANE 5 DEB (SYLDA) 4.0 17:51:06 10° W 17:55:13 86° S 17:56:52 55° E
USA 229 DEB 4.2 17:48:26 10° N 17:55:41 46° ENE 17:55:54 46° ENE
USA 229 4.3 17:48:32 10° N 17:55:48 45° ENE 17:55:58 45° ENE
IRS-1A Rocket 4.1 17:59:48 76° NNE 17:59:48 76° NNE 18:04:58 10° N
Cosmos 1937 Rocket 3.9 17:55:55 10° NNW 18:01:06 60° WSW 18:01:39 56° SW
Ariane H10+ 3.4 18:00:26 10° W 18:04:00 89° S 18:04:41 72° E
Cosmos 1745 Rocket 4.0 18:15:07 73° NNW 18:15:07 73° NNW 18:20:41 10° N
Ariane H10+ 4.4 18:09:06 10° W 18:19:35 81° S 18:21:13 68° ESE
Cosmos 2219 Rocket 4.2 18:30:58 18° N 18:30:58 18° N 18:32:21 10° N
Ariane 3 Deb 4.0 18:13:09 10° W 18:29:57 68° WSW 18:29:57 68° WSW
ARIANE 5 R/B 4.0 18:11:49 10° W 18:38:02 58° SW 18:38:02 58° SW
Cosmos 2333 Rocket 4.0 18:43:01 25° NNW 18:43:01 25° NNW 18:45:38 10° N
Ariane H10 4.5 18:36:51 10° WSW 18:39:37 34° SW 18:39:37 34° SW
Cosmos 2263 Rocket 4.0 18:40:37 10° NNW 18:42:44 24° NNW 18:42:44 24° NNW
